Simultaneous Nadir Overpasses (SNOs) Predictions

Prediction of SNOs between GOES-16 and LANDSAT-8 Satellite Orbit:

Table of predicted SNOs for the next 14.0 days since TLE Epoch: 11/16/2019
Index Date Time (GOES-16) GOES-16 Lat,Lon LANDSAT-8 Lat,Lon Distance(km) Time Diff (sec)
1 11/17/2019 15:03:24 0.02, -75.21 -0.59, -72.42 316.97 80
2 11/18/2019 03:24:48 -0.02, -75.19 -0.52, -77.61 275.00 80
3 11/20/2019 03:09:56 -0.03, -75.20 0.10, -74.65 62.29 80
4 11/22/2019 02:57:44 -0.03, -75.21 0.72, -71.69 400.12 80
5 11/22/2019 15:18:59 0.03, -75.23 0.40, -76.84 183.96 80
6 11/24/2019 15:09:27 0.03, -75.25 -0.23, -73.88 154.61 80
7 11/25/2019 03:30:51 -0.03, -75.24 -0.88, -79.08 436.83 80
8 11/26/2019 14:57:16 0.03, -75.27 -0.92, -70.94 493.55 80
9 11/27/2019 03:18:40 -0.03, -75.26 -0.18, -76.13 97.80 80
10 11/29/2019 03:06:27 -0.04, -75.29 0.39, -73.16 242.01 80
11 11/29/2019 15:25:03 0.03, -75.31 0.67, -78.32 341.80 80




NCC Satellite Simultaneous Nadir Overpasses (SNOs) Prediction Service
